Mason City, IA

1:49 PM CDT on June 23, 2017 (GMT -0500)
Mason City Municipal

Weather History for KMCW - November, 2014

Change the Weather History Date:

Thursday, November 6, 2014

  Actual Average Record
Temperature  
Mean Temperature 33 °F 39 °F  
Max Temperature 44 °F 49 °F 75 °F (1916)
Min Temperature 21 °F 29 °F 0 °F (1991)
Degree Days  
Heating Degree Days 32 26  
Month to date heating degree days 152 147  
Since 1 July heating degree days 877 885  
Cooling Degree Days 0 0  
Month to date cooling degree days 0 0  
Year to date cooling degree days 544 616  
Moisture  
Dew Point 30 °F    
Average Humidity 79    
Maximum Humidity 100    
Minimum Humidity 57    
Precipitation  
Precipitation T in 0.07 in 1.23 in (2000)
Month to date precipitation 0.05 0.42  
Year to date precipitation 33.46 32.50  
Snow  
Snow 0.00 in 0.10 in 1.50 in (1943)
Month to date snowfall 0.0 0.4  
Since 1 July snowfall 0.0 0.8  
Since 1 September snowfall 0.0 0.8  
Snow Depth 0.00 in    
Sea Level Pressure  
Sea Level Pressure 30.21 in    
Wind  
Wind Speed 16 mph (NW)    
Max Wind Speed 31 mph    
Max Gust Speed 39 mph    
Visibility 9 miles    
Events Rain    
T = Trace of Precipitation, MM = Missing Value Source: NWS Daily Summary

Daily Weather History Graph

Daily Weather History Graph

Search for Another Location

Airport or City:

Trip Planner

Search our weather history database for the weather conditions in past years. The results will help you decide how hot, cold, wet, or windy it might be!

Date:

Astronomy

Nov. 06, 2014 Rise Set
Actual Time 6:54 AM CST 4:58 PM CST
Civil Twilight 6:24 AM CST 5:28 PM CST
Nautical Twilight 5:50 AM CST 6:02 PM CST
Astronomical Twilight 5:17 AM CST 6:35 PM CST
Moon 5:07 PM CST (11/6) 6:25 AM CST (11/6)
Length of Visible Light 11h 04m
Length of Day
10h 04m
Full, 100% of the Moon is Illuminated
Nov 6
Full
Nov 6
Full
Nov 14
Last Quarter
Nov 22
New
Nov 29
First Quarter

Hourly Weather History & Observations

Time (CST) Temp. Windchill Dew Point Humidity Pressure Visibility Wind Dir Wind Speed Gust Speed Precip Events Conditions
12:00 AM 39.9 °F 30.2 °F 37.9 °F 93% 29.95 in 4.0 mi NW 20.7 mph 29.9 mph N/A   Overcast
12:21 AM 39.9 °F 30.2 °F 37.9 °F 93% 29.96 in 9.0 mi WNW 20.7 mph 26.5 mph N/A   Overcast
12:53 AM 39.9 °F 30.5 °F 39.0 °F 97% 29.97 in 4.0 mi NW 19.6 mph - 0.00 in   Overcast
1:53 AM 37.0 °F 24.9 °F 36.0 °F 96% 30.01 in 5.0 mi NW 27.6 mph 36.8 mph 0.00 in Rain Light Rain
2:01 AM 37.0 °F 25.4 °F 36.0 °F 96% 30.01 in 6.0 mi NNW 25.3 mph 36.8 mph 0.00 in   Overcast
2:46 AM 36.0 °F 23.9 °F 35.1 °F 97% 30.04 in 10.0 mi NNW 25.3 mph 38.0 mph 0.00 in   Overcast
2:53 AM 36.0 °F 24.4 °F 34.0 °F 93% 30.06 in 10.0 mi NNW 23.0 mph 33.4 mph 0.00 in   Overcast
3:15 AM 36.0 °F 24.7 °F 34.0 °F 93% 30.06 in 10.0 mi NNW 21.9 mph 29.9 mph N/A   Overcast
3:53 AM 35.1 °F 23.5 °F 33.1 °F 92% 30.10 in 10.0 mi NNW 21.9 mph 35.7 mph N/A   Overcast
4:14 AM 35.1 °F 23.3 °F 33.1 °F 92% 30.10 in 10.0 mi NNW 23.0 mph 31.1 mph N/A   Overcast
4:53 AM 35.1 °F 22.7 °F 32.0 °F 89% 30.15 in 10.0 mi NNW 25.3 mph 32.2 mph N/A   Overcast
5:53 AM 35.1 °F 23.8 °F 32.0 °F 89% 30.18 in 10.0 mi NNW 20.7 mph 29.9 mph N/A   Overcast
6:53 AM 34.0 °F 22.1 °F 30.0 °F 85% 30.20 in 10.0 mi NNW 21.9 mph 29.9 mph N/A   Scattered Clouds
7:53 AM 35.1 °F 23.3 °F 30.9 °F 85% 30.24 in 10.0 mi NNW 23.0 mph - N/A   Mostly Cloudy
8:18 AM 34.0 °F 22.4 °F 30.0 °F 85% 30.24 in 10.0 mi NNW 20.7 mph 27.6 mph N/A   Overcast
8:53 AM 35.1 °F 24.1 °F 30.9 °F 85% 30.28 in 10.0 mi NNW 19.6 mph 27.6 mph N/A   Mostly Cloudy
9:09 AM 36.0 °F 25.3 °F 30.9 °F 82% 30.26 in 10.0 mi NNW 19.6 mph 26.5 mph N/A   Scattered Clouds
9:53 AM 37.9 °F 28.2 °F 30.9 °F 76% 30.30 in 10.0 mi NNW 18.4 mph - N/A   Scattered Clouds
10:16 AM 37.9 °F 28.2 °F 30.0 °F 73% 30.29 in 10.0 mi NNW 18.4 mph 27.6 mph N/A   Mostly Cloudy
10:53 AM 39.9 °F 30.2 °F 30.0 °F 68% 30.30 in 10.0 mi NNW 20.7 mph 27.6 mph N/A   Mostly Cloudy
11:53 AM 41.0 °F 31.6 °F 28.9 °F 62% 30.30 in 10.0 mi NNW 20.7 mph 27.6 mph N/A   Mostly Cloudy
12:05 PM 42.1 °F 33.1 °F 30.0 °F 62% 30.29 in 10.0 mi NW 20.7 mph - N/A   Scattered Clouds
12:53 PM 42.1 °F 33.3 °F 28.9 °F 60% 30.31 in 10.0 mi NNW 19.6 mph 27.6 mph N/A   Scattered Clouds
1:13 PM 43.0 °F 34.2 °F 28.9 °F 58% 30.29 in 10.0 mi NNW 20.7 mph 27.6 mph N/A   Mostly Cloudy
1:20 PM 42.1 °F 33.3 °F 28.9 °F 60% 30.29 in 10.0 mi NNW 19.6 mph 26.5 mph N/A   Scattered Clouds
1:53 PM 42.1 °F 34.2 °F 28.0 °F 58% 30.30 in 10.0 mi NNW 16.1 mph 28.8 mph N/A   Partly Cloudy
2:53 PM 41.0 °F 32.2 °F 28.9 °F 62% 30.32 in 10.0 mi NW 18.4 mph - N/A   Mostly Cloudy
3:53 PM 39.9 °F 31.8 °F 28.0 °F 63% 30.32 in 10.0 mi NW 15.0 mph - N/A   Scattered Clouds
4:53 PM 36.0 °F 28.0 °F 28.0 °F 73% 30.31 in 10.0 mi NW 11.5 mph - N/A   Clear
5:53 PM 30.9 °F 22.8 °F 26.1 °F 82% 30.32 in 10.0 mi WNW 9.2 mph - N/A   Clear
6:53 PM 28.0 °F 20.0 °F 24.1 °F 85% 30.33 in 10.0 mi NW 8.1 mph - N/A   Clear
7:53 PM 27.0 °F 20.5 °F 24.1 °F 89% 30.32 in 10.0 mi West 5.8 mph - N/A   Clear
8:53 PM 26.1 °F 21.9 °F 23.0 °F 88% 30.32 in 10.0 mi WSW 3.5 mph - N/A   Clear
9:53 PM 24.1 °F - 23.0 °F 96% 30.30 in 10.0 mi Calm Calm - N/A   Clear
10:53 PM 24.1 °F 19.7 °F 21.9 °F 91% 30.29 in 9.0 mi South 3.5 mph - N/A   Clear
11:53 PM 21.9 °F - 19.9 °F 92% 30.27 in 10.0 mi Calm Calm - N/A   Clear